SCP
0 0 0 0 0 0 0 0 0 0 0 0 0 0 0 0 0 0 0 0 0 0 0 0 0 0 0 0 0 0 0 0 0 0 0 0 0 0 0 0 0 0 0
1 0 0 0 0 0 0 0 1 1 1 0 0 0 0 0 0 0 0 0 0 0 0 0 0 0 0 0 0 0 0 0 0 0 0 0 0 0 0 0 0 0 0
1 1 0 0 0 0 0 1 1 1 1 1 1 0 0 0 0 0 0 0 0 0 0 0 0 0 0 0 0 0 0 0 0 0 0 0 0 0 0 0 0 0 0
1 1 0 0 0 0 1 1 1 1 1 1 1 1 1 0 0 0 0 0 0 0 0 0 0 0 0 0 0 0 0 0 -0 -0 0 0 0 0 0 0 0 0 0
1 0 0 0 1 1 1 1 1 1 1 1 1 1 1 0 0 0 0 0 0 0 0 0 0 0 0 0 0 0 0 0 -0 -0 0 0 0 0 0 0 0 0 0
0 0 0 1 1 1 1 1 1 1 1 1 1 1 1 1 0 0 0 0 0 0 0 0 0 0 0 0 0 0 0 0 -0 0 0 0 0 0 0 0 0 0 0
0 0 0 0 0 1 1 1 1 1 1 1 1 1 1 1 0 0 0 0 0 0 0 0 0 0 0 0 0 0 0 0 0 0 0 0 0 0 0 0 0 0 0
0 0 0 0 0 0 1 1 1 1 1 1 1 1 1 1 0 0 0 0 0 0 0 0 0 0 0 0 0 0 0 -0 -0 0 0 0 0 0 0 0 0 0 0
0 0 0 0 0 0 0 1 1 1 1 1 1 1 1 0 0 0 0 0 0 0 0 0 0 0 0 0 0 0 0 -0 -0 0 0 0 0 0 0 0 0 0 0
0 0 0 0 0 0 0 0 1 1 1 1 1 1 0 0 0 0 0 0 0 0 0 0 0 0 0 0 0 0 0 -0 0 0 0 0 0 0 0 0 0 0 0
0 0 0 0 0 0 0 0 0 0 0 0 0 0 0 0 0 0 0 0 0 0 0 0 0 0 0 0 0 0 0 0 0 0 0 0 0 0 0 0 0 0 0
0 0 0 0 0 0 0 0 0 0 0 0 0 0 0 0 0 0 0 0 0 0 0 0 0 0 0 0 0 0 0 0 0 0 0 0 0 0 0 0 0 0 0
0 0 0 0 0 0 0 0 0 0 0 0 0 0 0 0 0 0 0 0 0 0 0 0 0 0 0 0 0 0 0 0 0 0 0 0 0 0 0 0 0 0 0
0 0 0 0 0 0 0 0 0 0 0 0 0 0 0 0 0 0 0 0 0 0 0 0 0 0 0 0 0 0 0 0 0 0 0 0 0 0 0 0 0 0 0
0 0 0 0 0 0 0 0 0 0 0 0 0 0 0 0 0 0 0 0 0 0 0 0 0 0 0 0 0 0 0 0 0 0 0 0 0 0 0 0 0 0 0
0 0 0 0 0 0 0 0 0 0 0 0 0 0 0 0 0 0 0 0 0 0 0 0 0 0 0 0 0 0 0 0 0 0 0 0 0 0 0 0 0 0 0
0 0 0 0 0 0 0 0 0 0 0 0 0 0 0 0 0 0 0 1 1 0 0 0 0 0 0 0 0 0 0 0 0 0 0 0 0 0 1 0 0 0 0
0 0 0 0 0 0 0 0 0 0 0 0 0 1 1 1 1 1 1 1 1 1 1 1 1 1 0 0 0 0 0 0 0 0 0 0 0 0 0 1 0 0 0
1 1 0 0 0 0 0 0 0 0 1 1 1 1 1 1 1 1 1 1 1 1 1 1 1 1 1 1 0 0 0 0 0 0 0 0 0 0 0 0 0 0 0
1 1 1 1 1 1 1 1 1 1 1 1 1 1 1 1 1 1 1 1 1 1 1 1 1 1 1 1 0 0 0 0 0 0 0 0 0 0 0 0 0 0 0
1 1 1 1 1 1 1 1 1 1 1 1 1 1 1 1 1 1 1 1 1 1 1 1 1 1 1 0 0 0 0 0 0 0 0 0 0 0 0 0 0 0 0
1 1 1 1 2 2 2 2 2 2 1 1 1 1 1 1 1 1 1 1 1 1 1 1 1 1 0 0 0 0 0 0 0 0 0 0 0 0 0 0 0 0 0
1 1 2 2 2 2 2 2 2 2 2 1 1 1 1 1 1 1 1 1 1 1 1 1 1 0 0 0 0 0 0 0 0 0 0 0 0 0 0 0 0 0 0
2 2 2 2 2 2 2 2 2 2 2 1 1 1 1 1 1 1 1 1 1 1 0 0 0 0 0 0 0 0 0 0 0 0 0 0 0 0 0 0 0 0 0
2 2 2 2 2 2 2 2 2 2 1 1 1 1 0 0 0 0 0 0 0 0 0 0 0 0 0 0 0 0 0 0 0 0 0 0 0 0 0 0 0 0 0
2 2 2 2 2 2 2 2 2 1 1 1 1 1 0 0 0 0 0 0 0 0 0 0 0 0 0 0 0 0 0 0 0 0 0 0 0 0 0 0 0 0 0
Wind_Speed
15 18 18 12 12 14 16 17 18 18 18 18 17 16 15 14 13 13 13 12 12 12 13 13 12 12 12 12 12 12 12 12 12 12 12 12 12 12 12 11 11 12 13
17 20 18 13 13 15 17 18 18 18 18 18 17 16 15 14 13 13 13 12 12 12 12 12 12 12 12 11 11 11 11 10 10 10 11 12 11 11 10 7 4 12 11
19 20 19 13 13 15 17 17 18 18 18 17 16 15 14 13 13 12 12 12 12 12 12 12 11 11 11 11 10 10 9 9 9 9 9 9 11 10 9 8 12 12 11
19 19 19 15 13 16 17 17 18 18 18 17 16 15 14 13 12 12 12 12 11 11 11 11 11 10 10 9 9 8 8 8 8 9 7 7 10 10 9 10 10 10 10
18 19 19 16 14 15 17 18 18 18 18 17 16 15 14 13 12 11 12 11 11 10 10 10 10 9 8 8 7 7 7 7 6 10 6 6 8 10 9 9 9 10 9
19 18 19 15 15 15 16 17 17 18 17 16 16 15 14 13 12 11 11 11 10 10 9 9 8 7 6 6 5 5 6 6 10 5 6 6 8 10 9 9 9 9 8
18 18 20 15 15 15 15 16 16 16 15 15 15 14 13 12 11 10 11 10 10 9 9 9 7 6 5 4 4 3 4 6 9 4 5 5 10 10 9 8 8 8 7
17 18 19 16 16 15 15 15 14 14 14 14 14 13 12 11 10 10 10 9 9 9 9 8 7 5 4 3 3 2 3 7 7 4 4 6 12 9 9 8 8 8 7
16 17 18 18 16 15 13 13 13 13 13 13 13 12 12 11 10 9 9 8 8 8 8 7 6 5 3 3 2 1 2 6 9 4 4 5 11 8 9 8 8 8 7
15 16 17 17 17 16 15 14 14 13 13 13 13 13 12 11 10 9 9 8 7 7 7 6 5 4 3 2 1 1 3 7 9 5 4 8 10 9 9 9 8 8 8
14 14 15 17 16 16 16 15 15 13 12 13 13 12 12 11 11 10 8 8 6 5 5 5 5 4 4 6 4 3 6 8 6 3 3 12 10 9 9 9 9 8 8
17 16 15 16 16 16 13 13 12 12 12 12 11 12 10 7 6 5 11 6 5 5 5 5 5 7 9 7 9 9 7 7 4 4 6 11 10 10 10 9 9 9 8
18 17 16 15 15 14 11 11 8 8 9 11 11 11 7 6 6 5 6 8 8 8 8 8 9 7 5 3 3 6 5 5 3 3 8 11 10 10 10 10 9 9 8
19 18 16 16 14 14 11 10 9 8 8 8 9 10 8 5 5 5 4 5 5 5 4 4 4 3 4 5 6 5 5 5 4 3 7 11 9 10 11 10 10 9 8
18 18 16 15 14 11 10 8 9 8 8 8 8 9 8 7 6 5 4 3 5 3 4 5 4 3 5 6 5 5 5 5 5 5 6 10 9 9 10 11 10 10 9
17 17 16 15 14 12 10 8 8 8 7 8 8 9 9 7 5 5 5 5 5 4 3 3 3 4 4 3 4 4 5 5 4 5 4 9 9 8 9 10 9 9 9
16 15 15 15 14 13 12 11 8 8 8 7 7 8 8 8 6 5 5 5 4 4 4 4 4 4 3 3 3 3 3 3 3 3 4 4 7 8 7 7 7 7 7
15 15 14 13 14 13 11 10 8 7 7 6 6 6 8 8 6 6 5 5 4 3 3 3 3 3 2 2 2 2 1 1 1 2 2 2 2 4 7 7 7 7 6
14 15 15 14 14 13 12 9 8 6 6 6 5 5 7 8 8 6 5 3 4 3 3 3 2 3 2 1 2 1 1 1 2 2 1 1 2 2 3 7 7 6 6
13 14 14 14 13 12 10 8 7 7 6 5 4 4 5 6 7 6 4 4 4 3 3 3 2 1 1 2 2 1 1 1 1 1 1 2 2 2 3 3 4 5 5
12 13 14 14 14 11 9 9 8 7 6 5 3 3 4 5 5 5 4 4 4 4 3 4 3 3 1 1 2 3 2 2 2 1 0 1 2 2 2 2 2 1 3
11 11 12 13 13 13 10 8 7 6 5 4 3 2 1 2 2 3 4 4 4 3 3 3 3 2 1 2 3 3 3 3 2 2 1 1 1 2 2 2 2 1 1
7 9 10 11 12 12 11 8 6 5 4 4 3 3 2 2 1 1 2 2 3 3 3 3 3 4 3 2 1 2 3 3 3 3 2 2 1 1 1 2 2 2 1
2 5 7 8 10 10 10 10 10 7 6 4 3 4 5 5 3 2 2 2 2 2 2 3 2 1 2 3 1 1 2 2 1 2 3 2 2 1 1 1 2 2 1
4 1 3 5 5 7 8 8 9 7 5 5 6 7 7 6 6 6 5 5 5 4 5 5 4 2 1 1 2 1 1 1 1 1 1 2 2 1 1 1 1 1 1
8 6 4 5 5 5 6 7 8 8 9 10 9 8 6 5 5 8 8 7 7 7 7 6 6 7 5 5 3 2 1 1 0 1 1 2 2 2 1 1 1 1 1
Wind_Direction
159 145 139 148 148 147 148 149 147 146 145 144 144 142 140 137 132 128 126 123 120 117 114 113 113 112 113 112 112 112 112 113 112 112 114 116 119 120 122 134 149 117 120
149 143 140 145 146 146 147 148 147 146 145 145 144 142 141 138 134 131 130 127 124 121 118 117 116 116 116 116 116 117 118 121 123 121 125 124 120 121 128 140 92 109 127
146 143 147 144 144 144 145 146 145 146 145 145 143 142 140 137 134 132 131 129 127 124 122 121 120 119 120 120 120 119 119 123 132 143 169 144 123 121 121 109 99 120 126
146 148 154 142 144 143 145 145 144 146 145 144 142 140 138 136 134 133 133 132 129 127 125 124 123 121 122 124 125 124 121 119 135 183 188 124 131 123 125 118 119 125 127
147 151 142 147 145 144 146 146 146 146 144 142 141 139 137 136 135 135 135 133 130 127 125 125 125 125 126 128 130 132 131 135 167 227 121 118 118 127 132 128 127 126 126
150 150 144 153 148 147 148 149 148 146 144 142 141 140 138 138 137 137 137 134 130 127 125 124 125 126 129 131 137 145 151 165 211 171 118 137 126 136 142 137 132 128 130
152 151 149 154 150 150 151 150 148 146 144 142 142 141 140 139 139 140 138 135 131 128 125 123 123 123 124 128 137 151 174 206 251 131 139 146 114 137 148 143 140 137 135
152 151 148 155 156 155 154 151 149 147 145 143 143 142 140 139 140 141 139 136 131 128 126 124 123 121 114 111 116 138 191 240 232 150 172 127 114 147 152 148 146 147 144
156 152 155 162 162 161 156 154 151 148 146 145 144 143 143 144 144 144 142 138 133 130 129 129 128 126 117 105 105 121 215 260 262 169 171 123 129 155 157 154 154 153 151
161 158 161 166 166 169 167 162 157 153 150 149 149 151 150 149 152 153 162 143 140 136 134 133 134 137 137 134 140 171 216 245 239 180 169 126 143 164 163 163 163 161 160
166 164 168 169 170 174 171 163 166 162 157 158 160 158 167 177 169 176 156 142 154 148 143 140 144 156 189 181 184 201 227 237 204 191 140 119 156 171 171 171 171 171 170
172 174 174 174 172 177 170 165 175 177 171 186 174 174 192 179 181 178 126 160 170 167 168 160 166 195 226 198 177 199 226 231 219 188 129 136 168 179 178 178 178 179 179
174 177 179 179 178 178 172 171 179 184 174 193 181 184 190 178 183 187 170 175 189 194 199 169 201 215 222 228 238 220 237 239 226 202 139 152 176 186 183 182 183 185 185
178 181 182 180 181 185 179 177 181 186 179 188 179 193 185 193 196 193 202 196 196 203 209 221 228 212 239 233 239 241 228 237 226 213 138 158 178 189 188 184 184 186 188
181 182 182 185 182 187 184 187 189 193 186 186 182 193 199 197 200 192 201 213 230 215 202 226 235 217 235 228 236 236 242 236 237 227 152 161 179 189 188 184 184 186 188
184 184 181 186 183 187 189 194 194 196 195 195 193 193 201 208 199 201 202 206 227 230 239 239 236 232 240 247 241 238 249 238 225 230 201 161 174 183 187 188 186 185 190
184 184 184 187 186 190 194 199 198 201 196 204 197 197 202 212 199 211 217 208 219 223 225 241 233 240 234 228 233 235 244 251 217 224 228 192 173 171 173 174 174 177 181
184 184 187 189 190 191 197 202 204 204 199 205 202 200 204 213 207 216 225 216 208 217 224 231 245 239 231 235 227 220 211 199 198 205 223 212 183 166 157 152 154 159 165
185 183 187 193 192 193 194 198 208 202 204 206 205 207 201 209 210 219 228 215 208 210 212 226 218 251 236 226 208 191 210 167 150 161 163 155 133 149 155 139 138 142 156
185 185 189 192 193 191 191 194 201 199 196 204 206 209 208 209 211 217 219 206 211 207 194 200 200 223 231 223 222 147 100 97 123 103 172 146 145 151 150 144 154 134 126
185 187 190 194 191 189 191 194 194 193 188 186 188 188 204 212 209 209 218 197 205 204 198 188 192 189 192 197 205 196 167 131 103 112 101 118 123 119 132 140 166 159 155
187 187 188 194 192 192 193 194 193 185 181 172 159 138 160 201 213 217 217 201 193 187 184 191 185 192 173 218 245 233 217 191 159 77 100 126 123 140 149 138 147 150 213
190 192 191 193 192 194 188 185 170 164 170 166 149 123 86 73 65 238 215 191 169 176 182 184 184 187 177 166 306 274 249 242 163 141 96 89 98 116 127 120 124 111 123
174 189 190 189 188 187 185 186 176 178 180 159 125 108 83 68 68 71 102 111 117 128 139 145 138 169 178 171 147 9 3 356 269 175 154 118 101 107 104 117 120 109 109
39 91 159 162 170 176 179 180 179 179 151 123 114 105 89 73 67 70 72 80 88 88 88 86 90 83 89 139 143 143 115 68 339 263 208 180 172 155 138 160 126 125 115
43 55 76 100 107 117 137 160 169 153 138 134 126 119 107 91 77 75 75 72 72 75 75 75 75 73 63 62 59 54 53 50 344 290 262 237 230 197 193 250 234 224 241